GW3387 Weather Reports


time (UTC)temp
C
wind
direction
speed
KPH
gust
KPH
rain 1hr
cm
rain 24hr
cm
rain mn
cm
humidity
%
barometer
mb
20260906051547 13 360 6.4 16.1 0.00 0.05 0.00 100 1015.3
20260906050047 13 277 6.4 14.5 0.00 0.05 0.00 100 1015.1
20260906044544 13 279 4.8 14.5 0.00 0.05 0.00 100 1014.9
20260906043044 13 279 3.2 11.3 0.00 0.05 0.00 100 1014.8
20260906041537 12 281 8.0 12.9 0.00 0.05 0.00 100 1014.7
20260906040034 12 279 3.2 8.0 0.00 0.05 0.00 100 1014.6
20260906034527 12 267 6.4 14.5 0.00 0.05 0.00 100 1014.5
20260906033025 12 266 3.2 8.0 0.00 0.05 0.00 100 1014.3
20260906031540 12 252 3.2 9.7 0.00 0.05 0.00 100 1014.3
20260906030022 11 257 1.6 4.8 0.00 0.05 0.00 100 1014.1
20260906024523 11 257 0.0 3.2 0.00 0.05 0.00 100 1013.9
20260906023021 12 257 0.0 3.2 0.00 0.05 0.00 100 1013.6
20260906021520 12 257 0.0 0.0 0.00 0.05 0.00 100 1013.5
20260906020024 12 257 0.0 1.6 0.00 0.05 0.00 100 1013.7
20260906014517 13 257 0.0 3.2 0.00 0.05 0.00 100 1013.9
20260906013015 12 257 3.2 6.4 0.00 0.05 0.00 100 1013.9
20260906011515 12 257 1.6 6.4 0.00 0.05 0.00 100 1013.9
20260906010012 11 257 0.0 4.8 0.00 0.05 0.00 100 1013.9
20260906004511 10 257 0.0 0.0 0.00 0.05 0.00 100 1014.0
20260906003019 10 256 0.0 0.0 0.00 0.05 0.00 100 1014.0
20260906001510 10 256 0.0 0.0 0.00 0.05 0.00 100 1014.0
20260906000009 10 360 0.0 0.0 0.00 0.05 0.00 100 1014.1
20260905234510 10 254 0.0 0.0 0.00 0.05 0.00 100 1013.9
20260905233008 10 360 0.0 0.0 0.00 0.05 0.00 100 1014.0
20260905231505 11 360 0.0 0.0 0.00 0.05 0.00 100 1013.9
20260905230001 11 360 0.0 0.0 0.00 0.05 0.00 100 1014.0
20260905224608 11 256 0.0 1.6 0.00 0.05 0.00 100 1013.9
20260905223059 11 360 0.0 3.2 0.00 0.05 0.00 100 1013.9
20260905221600 11 255 0.0 1.6 0.00 0.05 0.00 100 1014.0
20260905214554 12 261 1.6 6.4 0.00 0.05 0.00 100 1013.9
20260905213100 12 262 0.0 3.2 0.00 0.05 0.00 100 1014.1
20260905211550 12 263 0.0 1.6 0.00 0.05 0.00 100 1013.9
20260905210104 12 263 0.0 0.0 0.00 0.05 0.00 100 1013.9
20260905204547 12 263 0.0 1.6 0.00 0.05 0.05 100 1013.9
20260905203048 12 263 1.6 4.8 0.00 0.05 0.05 100 1013.9
20260905201548 12 263 0.0 0.0 0.00 0.05 0.05 100 1013.7
20260905200056 12 263 0.0 1.6 0.00 0.05 0.05 100 1013.6
20260905194542 13 263 0.0 3.2 0.00 0.05 0.05 100 1013.6
20260905193040 13 263 3.2 6.4 0.00 0.05 0.05 100 1013.4
20260905191541 12 264 3.2 4.8 0.00 0.05 0.05 100 1013.3
20260905190037 11 360 1.6 4.8 0.00 0.05 0.05 100 1013.2
20260905184537 11 360 0.0 0.0 0.00 0.05 0.05 100 1013.2
20260905183032 11 360 0.0 0.0 0.00 0.05 0.05 100 1013.2
20260905181529 12 265 0.0 1.6 0.00 0.05 0.05 100 1013.0
20260905180028 13 265 0.0 3.2 0.00 0.05 0.05 100 1013.1
20260905174526 15 265 0.0 3.2 0.00 0.05 0.05 100 1013.1
20260905173025 15 265 1.6 6.4 0.00 0.05 0.05 100 1012.9
20260905171538 15 360 1.6 4.8 0.00 0.05 0.05 100 1012.7
20260905170029 16 360 3.2 6.4 0.00 0.05 0.05 100 1012.5
20260905164523 16 360 3.2 8.0 0.00 0.05 0.05 100 1012.3
20260905163025 17 360 1.6 6.4 0.00 0.05 0.05 100 1012.2
20260905161533 17 360 3.2 9.7 0.00 0.05 0.05 100 1012.1
20260905160032 18 360 1.6 6.4 0.00 0.05 0.05 100 1012.2
20260905154544 19 360 3.2 14.5 0.00 0.05 0.05 100 1012.0
20260905153025 19 360 3.2 11.3 0.00 0.05 0.05 100 1012.0
20260905151519 20 269 4.8 12.9 0.00 0.05 0.05 100 1012.0
20260905150019 18 281 3.2 12.9 0.00 0.05 0.05 100 1011.9
20260905144531 18 360 1.6 8.0 0.00 0.05 0.05 100 1011.9
20260905143018 17 360 0.0 4.8 0.00 0.05 0.05 100 1012.2
20260905141523 17 360 1.6 6.4 0.00 0.05 0.05 100 1012.3
20260905140021 17 360 1.6 8.0 0.00 0.05 0.05 100 1011.7
20260905134516 17 360 1.6 6.4 0.00 0.05 0.05 100 1012.1
20260905133016 17 360 4.8 9.7 0.00 0.05 0.05 100 1012.2
20260905131514 17 360 1.6 9.7 0.00 0.05 0.05 100 1012.1
20260905130017 17 360 3.2 8.0 0.00 0.05 0.05 100 1012.3
20260905124519 17 360 1.6 6.4 0.00 0.05 0.05 100 1012.2
20260905123014 17 360 3.2 9.7 0.00 0.05 0.05 100 1012.7
20260905121512 18 360 4.8 17.7 0.00 0.05 0.05 100 1013.0
20260905120011 18 360 4.8 9.7 0.00 0.05 0.05 100 1012.4
20260905114511 17 360 1.6 4.8 0.03 0.05 0.05 100 1012.4
20260905113010 17 360 0.0 6.4 0.05 0.05 0.05 100 1012.5
20260905111509 17 360 1.6 9.7 0.05 0.05 0.05 100 1012.5
20260905110008 17 360 1.6 8.0 0.05 0.05 0.05 100 1012.1
20260905104510 18 360 3.2 17.7 0.05 0.05 0.05 100 1012.5
20260905103006 21 313 6.4 16.1 0.00 0.00 0.00 100 1011.9
20260905101502 22 360 6.4 19.3 0.00 0.00 0.00 100 1010.9
20260905100001 22 360 6.4 16.1 0.00 0.00 0.00 100 1011.0
20260905094609 23 275 6.4 20.9 0.00 0.00 0.00 100 1010.6
20260905093059 23 286 6.4 20.9 0.00 0.00 0.00 100 1010.2
20260905091607 25 300 6.4 19.3 0.00 0.00 0.00 100 1010.1
20260905090056 25 255 9.7 20.9 0.00 0.00 0.00 100 1010.1
20260905084554 25 278 16.1 25.7 0.00 0.03 0.00 100 1009.8
20260905083050 25 284 14.5 24.1 0.00 0.03 0.00 100 1009.7
20260905081558 24 257 12.9 20.9 0.00 0.03 0.00 100 1009.7
20260905080054 24 283 11.3 19.3 0.00 0.03 0.00 100 1009.5
20260905074539 24 300 4.8 16.1 0.00 0.03 0.00 100 1009.6
20260905073043 23 332 3.2 12.9 0.00 0.03 0.00 100 1009.2
20260905071531 23 278 4.8 14.5 0.00 0.03 0.00 100 1009.1
20260905070032 23 288 4.8 14.5 0.00 0.03 0.00 100 1008.9
20260905064523 23 278 11.3 19.3 0.00 0.03 0.00 100 1008.9
20260905063020 23 281 6.4 16.1 0.00 0.03 0.00 100 1008.9
20260905061517 22 279 8.0 16.1 0.00 0.03 0.00 100 1009.0
20260905060013 21 270 3.2 4.8 0.00 0.03 0.00 100 1009.2
20260905054508 18 251 0.0 4.8 0.00 0.03 0.00 100 1009.1
20260905053004 16 185 0.0 0.0 0.00 0.03 0.00 100 1009.0